sat.trackr.live / text

‹ back to catalog

CHUANGXIN 16B (CX-16B)

NORAD 53876 · 2022-102B

PAYLOAD ACTIVE UNKNOWN

§ Identity

Operator
Country
PRC
Launch date
2022-08-23
Launch site
XICLF
Launch vehicle
Mass (kg)
RCS (m²)

External: N2YO · Heavens-Above · Gunter

§ Orbital elements

Epoch: 2026-05-23T23:35:19.956768Z

Period
93.31 min
Inclination
28.9921°
Eccentricity
0.0002653
Mean motion
15.43232151 rev/d
Perigee alt
434.8 km
Apogee alt
438.4 km
Semi-major
6,814.7 km
B*
6.4795e-4
RAAN
359.6252°
Arg perigee
26.0553°
Mean anomaly
334.0190°
Rev number
20,296

§ Raw data

CHUANGXIN 16B (CX-16B)1 53876U 22102B   26143.98286987  .00030082  00000+0  64795-3 0  99952 53876  28.9921 359.6252 0002653  26.0553 334.0190 15.43232151202967

JSON: /api/v1/satellites/53876 · /tle

For live sub-satellite position, see the globe view (requires WebGL).

§ Visibility from observer

Set your observer location to see the next 7 days of passes ≥ 10°. The values pass through the URL so the page stays shareable.

No JS? Fill the form by hand. The geolocation button needs JavaScript.